Flag for Germany Weather past 2 weeks in Herzogenrath, North Rhine-Westphalia, Germany

Now
60 °F

Clear.


Feels Like: 60 °F
Forecast: 54 / 75 °F
Wind: 1 mph from East

Location: Maastricht Airport Zuid Limburg

Current Time: Sep 16, 2014 at 10:40:38 PM

Latest Report: Sep 16, 2014 at 10:00 PM


Visibility: 10 mi

Pressure: 29.94 "Hg

Humidity: 90%

Dew point: 57 °F

Location of HerzogenrathLocation

Historic Weather in Herzogenrath — Graph

°F

Herzogenrath temperature yesterday

Maximum temperature yesterday: 70 °F (at 5:00 PM)
Minimum temperature yesterday: 53 °F (at 8:00 AM)
Average temperature yesterday: 61 °F

Past Weeks' High & Low Weather Summary

 TemperatureHumidityPressure
High74 °F (Sep 5, 6:00 PM)100% (Sep 3, 8:00 AM)30.27 "Hg (Sep 3, 8:00 AM)
Low47 °F (Sep 12, 7:00 AM)54% (Sep 11, 5:00 PM)29.90 "Hg (Sep 6, 5:00 PM)
Average61 °F82%30.08 "Hg
* Reported Sep 1 9:00 PM — Sep 16 9:00 PM, Herzogenrath, Weather by CustomWeather, © 2014

Note: Actual official high and low records may vary slightly from our data, if they occured in-between our weather recording intervals... More about our weather records

Advertising

Herzogenrath weather history for previous 24 hours

 ConditionsComfort  
Time TempWeatherWind HumidityBarometerVisibility
9:00 PM
Sep 16
62 °FClear.2 mph85%29.93 "Hg13 mi
8:00 PM66 °FClear.1 mph74%29.93 "Hg6 mi
7:00 PM70 °FSunny.1 mph66%29.93 "Hg19 mi
6:00 PM70 °FSunny.1 mph68%29.93 "Hg14 mi
5:00 PM74 °FPartly sunny.2 mph58%29.93 "Hg14 mi
4:00 PM72 °FPartly sunny.2 mph60%29.94 "Hg13 mi
3:00 PM74 °FSunny.2 mph59%29.95 "Hg15 mi
2:00 PM71 °FOvercast.2 mph66%29.96 "Hg11 mi
1:00 PM70 °FOvercast.1 mph72%29.97 "Hg7 mi
12:00 PM67 °FFog.1 mph81%29.99 "Hg6 mi
11:00 AM65 °FFog.1 mph85%29.99 "Hg4 mi
10:00 AM62 °FFog.1 mph90%29.99 "Hg4 mi
9:00 AM60 °FFog.1 mph92%29.99 "Hg4 mi
8:00 AM58 °FFog.1 mph94%29.98 "Hg4 mi
7:00 AM56 °FFog.1 mph97%29.98 "Hg4 mi
6:00 AM56 °FFog.1 mph97%29.98 "Hg4 mi
5:00 AM57 °FFog.No wind95%29.97 "Hg6 mi
4:00 AM62 °FFog.2 mph83%29.98 "Hg6 mi
3:00 AM61 °FFog.2 mph86%29.99 "Hg6 mi
2:00 AM58 °FFog.2 mph92%29.99 "Hg4 mi
1:00 AM59 °FFog.2 mph91%29.99 "Hg6 mi
12:00 AM60 °FPassing clouds.3 mph88%29.99 "Hg7 mi
11:00 PM
Sep 15
61 °FClear.3 mph86%29.99 "Hg8 mi
10:00 PM62 °FPassing clouds.2 mph83%29.99 "Hg9 mi
Weather by CustomWeather, © 2014

See weather overviewHow to use our weather pages